Vertical_Velocity
-0 -0 -0 -1 -1 -1 -1 -1 -1 -0 -0 0 0 0 0 0 0 1 1 1 1 1 1 0 0 -0 -1 -1 -1 -1 -1 -0 0 1 1 2 2 2 1 1 0 -0 -0 0 0 0 0 0 -0 -0 -0 -0 -0 -0 0 0 0 0 0 0 0 0 0 0 0 0 0 0 0 0 0 0 0 -0 -0 -0 -0 -0 0 0 0 0 -0 -0 -0 -0 -0 -0 -0 -0 0 0 0 0 0 0 0 -0 -0 -0 -1 -1 -2
-0 -0 -0 -0 -1 -1 -1 -1 -1 -0 -0 0 0 0 0 0 0 1 1 1 1 1 1 1 0 -0 -1 -1 -1 -1 -1 -0 0 1 1 2 2 2 2 1 0 0 0 0 0 0 0 0 -0 -0 -0 -0 -0 -0 -0 -0 0 0 0 0 0 0 0 0 0 0 0 0 0 0 0 0 0 0 0 -0 -0 -0 -0 -0 0 0 0 0 0 0 0 -0 -0 -0 0 0 0 0 0 0 0 0 0 -0 -0 -1 -1
-0 -0 -0 -0 -1 -1 -1 -1 -1 -1 -0 0 0 0 0 0 0 1 1 1 1 1 1 1 0 -0 -1 -1 -1 -1 -1 -1 -0 0 1 1 2 2 2 1 1 0 0 0 0 1 0 0 0 -0 -0 -0 -0 -0 -0 -0 -0 -0 0 0 0 0 -0 -0 0 0 0 0 0 0 0 0 0 0 0 0 0 -0 -0 0 0 0 0 0 0 0 0 -0 -0 -0 0 0 0 0 1 1 1 0 0 0 -0 -1 -1
-0 -0 -0 -0 -1 -1 -1 -1 -1 -1 -0 -0 0 0 0 0 0 1 1 1 1 1 1 1 0 0 -1 -1 -2 -2 -2 -1 -1 -0 0 1 1 2 1 1 1 0 0 1 1 1 1 1 0 0 -0 -0 -0 -0 -0 -0 -0 -0 -0 0 0 -0 -0 -0 -0 -0 -0 0 0 0 0 0 0 0 0 0 0 0 0 0 0 -0 -0 0 0 0 0 0 0 0 0 0 0 0 1 1 1 1 0 0 0 -0 -0
-0 -0 -0 -0 -1 -1 -1 -1 -1 -1 -1 -0 -0 0 0 0 0 0 1 1 1 1 1 1 1 0 -0 -1 -2 -2 -2 -1 -1 -0 0 1 1 1 1 1 1 0 0 0 0 1 1 1 0 0 0 0 0 0 0 0 -0 -0 -0 0 0 0 0 -0 -0 -0 -0 -0 -0 0 0 0 0 0 0 0 0 0 0 0 0 -0 -0 -0 0 0 0 0 0 0 0 0 0 0 0 0 1 1 1 0 0 0 0
-1 -0 -0 -0 -0 -1 -1 -1 -1 -1 -1 -1 -0 -0 0 0 0 0 1 1 1 1 1 1 1 1 -0 -1 -1 -2 -2 -1 -1 -1 -0 0 1 1 1 1 1 0 0 0 0 0 0 0 0 0 0 0 0 0 0 0 0 0 -0 0 0 0 0 0 0 0 -0 -0 0 0 0 0 0 0 0 0 0 0 0 0 0 0 -0 -0 -0 0 0 0 0 0 0 1 0 0 0 0 0 0 1 0 0 0 0
-1 -1 -0 -0 -1 -1 -1 -1 -1 -1 -1 -1 -1 -0 -0 0 0 0 1 1 1 1 1 1 1 1 0 -1 -1 -2 -2 -1 -1 -1 -0 0 0 1 1 1 1 0 0 0 -0 -0 0 0 0 0 0 0 0 0 0 0 0 0 0 0 0 0 0 0 0 0 0 0 0 0 -0 -0 -0 0 0 0 0 0 0 0 -0 -0 -0 -0 -0 0 0 0 0 0 0 0 0 0 0 0 0 0 0 0 0 0 0
-1 -1 -1 -1 -1 -1 -1 -1 -1 -1 -1 -1 -1 -0 -0 0 0 0 0 1 1 1 1 1 1 1 1 -0 -1 -1 -1 -1 -1 -1 -0 -0 0 1 1 1 1 1 1 0 0 0 0 0 0 0 0 0 0 0 0 0 0 0 0 0 0 0 0 0 0 0 0 0 0 0 -0 -0 -0 -0 -0 -0 -0 0 0 -0 -0 -0 -0 -0 -0 -0 -0 -0 -0 -0 -0 -0 0 0 0 0 -0 -0 0 0 0 0 0
-1 -1 -1 -1 -1 -1 -0 -0 -0 -0 -1 -1 -0 -0 -0 0 0 0 0 0 0 0 1 1 1 1 1 0 -0 -1 -1 -1 -1 -1 -0 -0 0 0 1 1 1 1 1 1 1 1 0 0 0 0 1 1 1 1 1 1 1 0 0 0 0 0 0 0 0 -0 -0 -0 -0 -0 -0 -0 -0 0 0 -0 -0 -0 -0 -0 -0 -0 -0 -0 -0 -0 -0 -0 -0 -1 -1 -0 -0 -0 -0 -0 -0 -0 0 0 -0 -0 -0
-2 -1 -1 -1 -1 -1 -1 -0 -0 -0 -0 -0 -0 -0 0 0 0 0 0 0 0 0 0 1 1 1 1 1 -0 -1 -1 -1 -1 -1 -0 -0 -0 0 0 1 1 1 2 1 1 1 1 1 1 1 1 1 1 1 1 1 1 1 0 0 0 0 0 0 0 0 -0 -0 -0 -0 -0 -0 -0 -0 -0 -0 -0 -0 -0 0 -0 -0 -0 -0 -0 -0 -0 -0 -0 -1 -1 -1 -1 -0 -0 -0 -0 0 0 0 -0 -0 -0
-2 -2 -1 -1 -1 -1 -1 -1 -0 -0 -0 -0 0 0 0 0 0 0 0 0 0 0 0 1 1 1 1 1 0 -1 -1 -1 -1 -0 -0 -0 -0 -0 0 0 1 1 2 2 2 1 1 1 1 1 1 1 1 1 1 1 1 1 1 0 0 0 0 0 0 0 -0 -0 -0 -0 0 0 -0 -0 -0 -0 -0 0 0 0 0 -0 -0 -0 -0 -0 -0 -0 -0 -0 -0 -1 -1 -1 -1 -1 -0 -0 0 0 0 -0 -0
-2 -2 -1 -1 -1 -1 -1 -1 -1 -0 0 0 0 0 0 1 0 0 0 0 0 0 0 1 1 1 1 1 0 -0 -1 -1 -1 -0 -0 -0 -0 -0 -0 0 1 1 1 1 1 1 1 1 1 1 1 1 1 1 1 1 1 1 0 1 0 0 0 0 0 0 -0 -0 0 0 0 0 -0 -0 -0 -0 -0 -0 -0 -0 -0 -0 -0 -0 -0 -0 -0 -0 -0 -0 -0 -0 -1 -1 -1 -1 -1 -1 -0 -0 -0 -0 -0
-1 -2 -1 -1 -1 -1 -1 -1 -1 -0 -0 0 0 0 1 1 1 0 0 0 0 0 0 0 1 1 1 1 1 0 -0 -1 -1 -0 -0 -0 -0 -0 -0 -0 0 0 1 1 1 1 1 1 1 1 1 1 1 1 1 1 1 0 0 0 0 0 0 0 -0 -0 -0 0 0 0 0 0 -0 -0 -0 -1 -0 -0 -0 -0 -0 -0 -0 -0 -0 -0 -0 -0 -0 -0 -0 -0 -0 -0 -0 -1 -1 -1 -1 -1 -0 -0 -0
-1 -1 -1 -1 -1 -1 -1 -1 -1 -0 -0 0 0 0 1 1 0 0 0 0 0 0 0 0 1 1 1 2 1 1 0 -0 -1 -1 -0 -0 -0 -0 -0 -0 -0 0 1 1 1 1 1 1 1 1 1 1 1 1 1 1 0 0 0 0 0 0 0 0 0 0 -0 0 0 0 0 -0 -0 -0 -0 -0 -1 -1 -0 -0 -0 -1 -1 -1 -0 -0 -0 -0 -0 -0 -0 -0 -0 -0 -0 -0 -1 -1 -1 -1 -1 -0 -0
-1 -1 -1 -1 -1 -1 -1 -1 -1 -1 -0 -0 0 0 0 0 0 0 0 0 0 0 0 0 1 1 1 2 2 1 1 0 -0 -1 -0 -0 -0 -0 -0 -0 -0 -0 0 0 1 1 1 1 1 1 1 0 0 0 1 1 0 0 0 0 0 0 0 0 0 0 -0 -0 0 0 -0 -0 -0 -0 -0 -0 -1 -1 -1 -1 -1 -1 -1 -1 -1 -0 -0 -0 -0 -0 -0 -0 -0 -0 -0 -0 -0 -1 -1 -1 -1 -1 -0
-1 -1 -1 -1 -1 -1 -1 -1 -1 -1 -1 -0 -0 0 0 0 0 0 0 0 0 0 0 0 0 1 1 1 1 2 1 1 0 -0 -0 -0 -0 -0 -0 -0 -0 -0 0 0 0 1 1 1 1 0 0 0 0 0 1 0 0 0 0 0 0 0 0 0 0 0 -0 -0 -0 -0 -0 -0 -0 -0 -0 -0 -1 -1 -1 -1 -1 -1 -1 -1 -1 -1 -0 -0 -0 -0 -0 -0 -0 -0 -0 -0 -0 -0 -1 -1 -1 -1 -0
-1 -1 -1 -1 -1 -1 -1 -1 -1 -1 -1 -1 -0 -0 0 0 0 0 0 0 0 1 1 1 1 1 1 1 1 1 2 1 1 0 -0 -0 -0 -0 -0 -0 -0 -0 -0 -0 0 1 1 1 1 0 0 0 0 0 0 0 0 0 0 -0 -0 -0 -0 0 0 0 0 0 0 -0 -0 -0 -1 -1 -1 -1 -1 -1 -1 -2 -1 -1 -1 -1 -1 -1 -1 -1 -0 -0 -0 0 0 0 -0 -0 -0 -0 -0 -0 -1 -1 -1
-1 -1 -1 -1 -0 -1 -1 -1 -1 -1 -1 -1 -0 -0 0 0 0 0 0 0 1 1 1 1 1 1 1 1 1 1 1 1 1 0 0 -0 0 0 0 0 -0 -0 -0 -0 0 0 1 1 1 0 0 0 -0 -0 0 0 0 -0 -0 -0 -0 -0 -0 -0 -0 -0 -0 -0 -0 -0 -1 -1 -1 -1 -1 -1 -1 -1 -1 -1 -2 -2 -1 -1 -1 -1 -1 -1 -1 -1 -0 -0 0 0 0 0 -0 -0 -0 -0 -0 -0 -1
-0 -0 -0 -0 -0 -0 -0 -0 -1 -1 -1 -1 -0 -0 0 0 0 0 0 1 1 1 1 1 1 1 1 1 1 1 1 1 1 1 0 0 0 0 0 0 0 0 -0 -0 -0 0 0 1 0 0 0 -0 -0 -0 -0 -0 -0 -0 -0 -1 -1 -1 -1 -1 -1 -1 -0 -0 -0 -1 -1 -1 -1 -2 -2 -2 -2 -1 -1 -1 -2 -2 -2 -2 -2 -1 -1 -1 -1 -1 -1 -1 -0 -0 -0 -0 -0 -0 -0 -0 -0 -0 -0
-0 -0 -0 0 0 0 -0 -0 -1 -1 -1 -1 -0 -0 0 0 0 0 0 1 1 1 1 1 1 1 1 1 1 1 1 1 1 1 1 0 0 0 0 1 1 1 0 0 -0 -0 0 0 0 0 0 -0 -0 -0 -1 -1 -1 -1 -1 -1 -1 -1 -1 -1 -1 -1 -1 -1 -1 -1 -1 -1 -2 -2 -2 -2 -2 -2 -2 -2 -2 -2 -2 -2 -2 -2 -1 -1 -1 -1 -1 -1 -1 -1 -1 -1 -1 -0 -0 -0 -0 -0 -0
0 0 0 0 0 0 -0 -0 -1 -1 -1 -1 -0 -0 0 0 0 0 1 1 1 1 1 1 1 1 1 1 1 1 1 1 1 1 1 1 0 0 0 0 1 1 1 1 0 0 -0 0 0 0 0 -0 -0 -1 -1 -1 -1 -1 -1 -1 -1 -1 -2 -2 -2 -2 -1 -1 -2 -2 -2 -2 -2 -2 -2 -2 -2 -2 -2 -2 -2 -2 -2 -2 -2 -2 -2 -2 -1 -1 -1 -1 -1 -1 -1 -1 -1 -1 -1 -1 -1 -1 -1
0 0 0 0 0 0 -0 -1 -1 -1 -1 -1 -0 -0 -0 0 0 0 1 1 1 1 1 1 1 1 0 1 1 1 0 1 1 1 1 1 0 0 -0 0 0 1 1 1 1 0 0 0 0 0 0 0 -0 -0 -1 -1 -1 -1 -1 -1 -1 -2 -2 -2 -2 -2 -2 -2 -2 -2 -2 -2 -2 -2 -2 -2 -2 -2 -2 -2 -2 -2 -2 -2 -2 -2 -2 -2 -1 -1 -1 -1 -1 -1 -1 -1 -1 -1 -1 -1 -1 -1 -1
1 0 0 0 0 -0 -1 -1 -1 -0 -1 -1 -0 -0 -0 0 0 0 1 1 1 1 1 1 1 0 0 1 0 0 0 1 1 1 1 1 0 0 0 0 0 0 1 1 1 1 1 0 0 0 0 0 0 0 -0 -1 -1 -1 -1 -1 -1 -1 -2 -2 -2 -2 -2 -2 -2 -2 -2 -2 -3 -3 -3 -2 -2 -2 -2 -2 -2 -2 -2 -2 -2 -2 -2 -2 -2 -1 -1 -1 -1 -1 -1 -1 -1 -1 -1 -1 -1 -1 -1
0 0 0 0 0 -0 -1 -1 -0 -0 -1 -1 -0 -0 -1 -0 0 0 0 1 1 1 1 1 1 0 1 1 1 0 0 1 1 1 1 0 0 0 0 0 0 0 0 1 1 1 1 1 1 1 1 0 0 0 0 0 -0 -0 -1 -1 -1 -1 -1 -1 -2 -2 -2 -2 -2 -2 -2 -2 -2 -2 -2 -2 -2 -2 -2 -2 -2 -2 -2 -2 -2 -2 -2 -1 -1 -1 -1 -1 -1 -1 -1 -1 -1 -1 -1 -1 -1 -1 -1
-0 0 0 0 -0 -1 -1 -0 -0 -0 -0 -0 -0 -0 -0 -0 0 0 0 0 0 1 1 1 1 0 1 1 1 0 0 0 0 1 1 0 0 0 0 0 0 0 0 0 1 1 1 1 1 1 1 1 1 1 1 0 0 0 -0 -0 -1 -1 -1 -1 -1 -1 -1 -1 -1 -1 -1 -1 -1 -1 -1 -1 -1 -1 -1 -1 -2 -2 -2 -2 -2 -1 -1 -1 -1 -1 -1 -1 -1 -1 -1 -1 -1 -1 -1 -1 -1 -1 -1
-1 -0 -0 0 -0 -0 -1 -0 -0 -0 -0 -0 -0 -0 -0 -0 -0 0 0 0 0 0 0 0 0 0 1 1 1 0 0 0 0 0 0 0 0 0 0 0 0 0 0 0 0 1 1 1 1 1 1 1 1 1 1 1 1 1 0 0 -0 -0 -1 -1 -1 -1 -1 -1 -1 -1 -1 -1 -1 -1 -1 -1 -1 -1 -1 -1 -1 -2 -2 -2 -2 -1 -1 -1 -1 -1 -2 -2 -1 -1 -1 -1 -0 -0 -1 -1 -1 -1 -1
-1 -0 -0 -0 -0 -0 -0 -0 0 0 -0 -0 -0 0 -0 -0 -0 0 0 0 0 0 0 0 0 0 0 0 0 0 0 1 1 0 0 0 1 1 0 0 0 0 0 0 0 0 0 1 1 1 1 1 1 1 1 1 1 1 1 1 1 0 0 -0 -0 -1 -1 -1 -1 -1 -1 -1 -1 -1 -1 -1 -1 -1 -1 -1 -1 -2 -2 -2 -2 -2 -1 -1 -1 -1 -2 -2 -2 -2 -1 -1 -0 -0 -0 -1 -1 -0 -0
-1 -0 -0 -0 0 -0 -0 0 0 0 0 0 0 0 0 -0 -0 -0 0 0 0 0 0 0 0 0 0 0 0 0 0 1 1 0 0 0 1 1 1 0 0 0 0 0 0 0 0 0 1 1 1 1 1 1 1 1 1 1 1 2 1 1 1 1 0 0 -0 -0 -1 -1 -1 -1 -1 -1 -1 -1 -2 -2 -2 -1 -1 -1 -1 -2 -2 -2 -2 -1 -1 -1 -1 -2 -2 -2 -2 -1 -1 -0 -0 -0 -0 -0 -0
-0 -1 -0 -0 0 -0 -0 0 0 1 0 1 1 0 -0 -0 -0 -0 -0 0 -0 -0 -0 -0 -0 -0 0 -0 0 0 1 1 1 0 0 0 0 0 1 0 0 0 0 0 0 0 0 0 0 1 1 1 1 1 2 2 2 2 2 2 2 1 1 1 1 1 0 0 -0 -0 -1 -1 -1 -1 -1 -2 -2 -2 -2 -2 -2 -2 -2 -2 -1 -1 -1 -1 -1 -1 -1 -1 -1 -2 -2 -2 -1 -1 -0 -0 -0 -0 0
-0 -0 -0 -0 -0 -0 -0 0 1 1 1 1 1 1 0 0 0 0 -0 -0 -0 -0 -0 -0 -0 -0 0 -0 0 0 0 0 0 0 0 0 0 0 0 0 0 0 1 1 1 1 1 0 0 0 1 1 1 1 2 2 2 2 2 1 1 1 1 1 1 1 1 0 0 0 0 -0 -1 -1 -1 -1 -2 -2 -2 -2 -2 -2 -2 -2 -1 -1 -1 -1 -1 -1 -1 -1 -1 -1 -1 -1 -1 -1 -1 -0 -0 -0 0
-0 -0 0 -0 -0 -0 -1 0 1 1 2 2 2 1 0 0 0 0 -0 -0 -0 -1 -0 -0 -0 -0 -0 -0 0 -0 -0 0 0 0 -0 -0 -0 0 0 0 1 1 1 1 1 1 1 1 1 0 0 1 1 1 2 2 2 2 2 2 1 1 1 1 0 0 1 1 1 1 1 0 0 -0 -0 -1 -1 -2 -2 -2 -2 -2 -2 -2 -1 -1 -1 -1 -1 -1 -1 -1 -1 -1 -1 -1 -1 -1 -1 -1 -0 -0 0
0 0 0 0 -0 -1 -1 -0 1 1 2 2 2 1 0 1 0 0 -0 -0 -0 -1 -0 -0 -0 -0 -0 -0 -0 -0 0 0 -0 -0 -0 -0 -0 -0 -0 0 1 1 1 1 2 2 2 2 1 1 1 1 1 1 2 2 2 2 2 2 2 1 1 1 1 1 1 1 1 1 1 1 1 1 0 -0 -1 -1 -1 -2 -2 -2 -2 -1 -1 -1 -1 -1 -1 -1 -1 -1 -1 -1 -1 -1 -1 -1 -0 -0 -0 -0 0
1 1 1 0 -1 -1 -2 -1 0 1 1 1 1 1 1 1 1 0 -0 -0 -0 -0 -0 -0 -0 -1 -0 -0 -0 -0 0 -0 -0 -0 -1 -1 -0 -0 -0 0 0 1 1 1 1 1 2 2 2 2 2 2 2 1 1 1 1 1 0 1 1 1 2 2 2 2 1 1 1 1 1 1 1 1 1 0 -0 -1 -1 -1 -1 -1 -1 -1 -1 -1 -1 -1 -1 -1 -1 -1 -1 -0 -0 -0 -0 -0 -0 -0 -0 -0 -0
3 2 1 0 -0 -1 -2 -1 -0 0 1 1 1 2 1 1 1 0 0 -0 -1 -0 -0 -0 -1 -1 -1 -1 -1 -1 -1 -1 -1 -0 -1 -1 -1 -0 -0 -0 -0 0 1 1 1 1 1 2 2 2 2 2 2 1 0 -0 -1 -1 -1 -0 0 1 1 1 2 2 1 1 1 1 1 1 1 1 0 0 -0 -1 -1 -1 -1 -0 -0 -0 -0 -0 -0 -1 -1 -1 -1 -1 -0 -0 -0 -0 -0 -0 0 0 0 -0 -0
5 2 1 0 -0 -1 -1 -1 -1 -1 -0 0 1 1 1 1 1 0 -0 -0 -1 -1 -1 -1 -1 -1 -1 -1 -1 -1 -1 -1 -1 -1 -1 -1 -1 -1 -0 -1 -1 -0 0 -0 -0 0 1 1 1 1 1 1 1 0 -0 -1 -1 -1 -1 -0 -0 -0 -0 -0 -0 0 0 0 0 1 1 1 0 0 -0 -0 -1 -1 -1 -1 -0 0 -0 -0 0 0 0 -0 -0 -1 -1 -0 -0 -0 -0 -0 -0 -0 -0 -0 -0 0 0
5 0 -0 -0 -0 -1 -1 -1 -1 -1 -1 -1 0 1 1 1 1 0 -0 -1 -1 -1 -1 -1 -1 -1 -2 -1 -1 -2 -2 -2 -1 -1 -2 -2 -1 -1 -0 -1 -1 -1 0 -1 -0 0 1 0 -0 -0 0 -0 -0 -0 -0 -0 -0 -0 -1 -1 -1 -1 -2 -2 -2 -2 -1 -1 -1 0 1 1 1 0 -0 -1 -1 -1 -1 -1 -0 0 1 1 0 0 0 0 0 -0 -0 -0 0 0 -0 -0 -1 -1 -1 -1 -0 -0 0
2 -2 -1 -1 -1 -1 -0 -1 -1 -2 -2 -2 -1 0 1 1 1 0 -0 -1 -1 -1 -1 -0 -1 -1 -2 -2 -2 -2 -3 -2 -2 -2 -3 -2 -1 -1 -0 -1 -0 0 0 -1 -1 -0 -0 -1 -1 -0 0 0 1 1 1 1 0 -0 -1 -1 -2 -2 -2 -3 -3 -2 -2 -2 -1 -1 0 1 1 1 0 -0 -1 -1 -1 -0 -0 0 1 1 1 1 1 1 1 1 0 0 0 0 -0 -1 -1 -1 -1 -1 -1 -0 -0
-1 -2 -2 -2 -2 -1 0 -1 -2 -2 -3 -2 -1 0 1 1 1 0 -0 -0 -1 -1 -0 -0 -1 -1 -1 -2 -2 -3 -3 -2 -2 -3 -4 -2 -1 -0 -1 -0 0 0 -0 -1 -1 -1 -1 -2 -1 0 1 1 1 1 1 1 -0 -1 -1 -1 -2 -2 -2 -2 -2 -2 -2 -2 -2 -1 -1 0 0 1 0 0 -0 -0 -0 -0 0 0 1 1 1 2 2 1 2 2 1 1 0 -0 -0 -1 -1 -1 -1 -1 -1 -1 -1
-2 -2 -2 -2 -2 -1 -1 -1 -2 -3 -3 -1 -1 0 1 1 1 0 0 -0 -1 -1 0 -0 -1 -1 -1 -2 -3 -3 -3 -2 -2 -3 -4 -2 -1 -1 -1 0 0 -0 -1 -2 -2 -1 -1 -1 0 1 1 1 1 1 1 0 -1 -1 -1 -1 -1 -2 -2 -2 -2 -2 -1 -1 -1 -1 -1 -1 -0 -0 -0 0 0 0 -0 -0 0 1 1 1 2 2 1 2 2 2 2 2 1 1 -0 -1 -0 0 0 0 0 -0 -0
-1 -1 -1 -2 -2 -2 -1 -1 -2 -3 -2 -1 -0 0 1 2 1 0 -0 -1 -1 -1 0 0 -0 -1 -2 -3 -3 -3 -3 -2 -2 -3 -3 -1 -1 -1 -1 -0 -0 -1 -2 -2 -1 -1 -0 1 1 1 1 1 1 1 1 -1 -1 -1 -1 -1 -1 -2 -2 -2 -2 -1 -1 -1 -1 -1 -1 -1 -1 -1 -0 0 0 0 -0 -0 0 0 1 1 1 1 1 1 1 2 2 2 2 1 1 1 2 2 2 1 1 0 0
2 -0 -1 -1 -2 -2 -2 -2 -3 -3 -1 -0 0 1 1 2 1 0 -1 -1 -1 -1 -1 0 0 -1 -3 -3 -3 -2 -4 -3 -2 -2 -3 -2 -1 -2 -2 -1 -1 -2 -2 -1 -0 0 0 1 1 1 1 1 1 1 -0 -1 -1 -1 -1 -1 -2 -2 -2 -2 -1 -0 -0 -0 -1 -1 -1 -1 -1 -1 -1 0 0 0 -0 -1 -0 0 1 1 1 1 1 0 0 0 1 2 2 2 2 2 3 4 4 2 1 1 1
9 4 1 -1 -2 -3 -3 -4 -3 -2 -1 0 1 1 1 1 0 -0 -1 -1 -1 -1 -1 -0 -0 -1 -3 -3 -3 -3 -3 -3 -3 -2 -3 -2 -2 -2 -2 -1 -1 -2 -2 -1 -0 -0 -0 0 0 0 0 1 1 1 -1 -1 -1 -1 -1 -2 -2 -2 -1 0 1 1 0 -0 -0 -1 -1 -1 -2 -2 -1 0 0 -0 -1 -1 -0 -0 0 1 1 1 1 1 0 -0 -1 0 1 2 2 2 3 4 4 3 1 0 0
18 14 10 6 2 0 -1 -1 -1 0 2 2 2 1 1 0 -1 -1 -0 -0 0 -0 -1 -1 -1 -2 -2 -3 -3 -3 -2 -3 -4 -3 -2 -2 -2 -2 -1 -1 -1 -2 -2 -0 -0 -1 -1 -0 -0 -0 0 1 1 0 -1 -1 -1 -1 -1 -1 -1 -1 0 1 1 0 -0 -0 0 0 -0 -1 -1 -2 -1 -0 0 -0 -1 -1 -1 -0 -0 -0 0 1 1 1 1 0 -1 -1 -0 0 1 1 2 3 4 2 0 -1 -1
13 13 15 13 10 8 5 5 5 7 7 7 5 3 1 -0 -0 0 -0 1 1 1 -1 -2 -2 -2 -2 -2 -3 -3 -2 -3 -4 -4 -2 -2 -1 -1 -1 -1 -1 -2 -1 0 -0 -1 -1 -1 -1 -0 1 2 2 1 -0 -0 -1 -1 -1 0 1 1 2 1 -0 -1 -1 -1 -0 0 0 0 -1 -1 -1 -1 -0 -0 -1 -1 -0 -1 -1 -1 -1 -0 0 1 1 1 0 -0 -0 -0 0 -0 0 1 3 2 -0 -2 -2
3 2 5 6 7 8 6 5 6 7 8 9 8 6 3 3 3 3 2 1 2 2 0 -1 -0 0 -0 -1 -2 -2 -2 -3 -3 -3 -1 -1 -0 -0 -0 -1 -1 -1 -0 -0 -0 -0 -1 -1 -1 1 2 3 2 2 1 0 -0 -0 1 2 2 2 2 1 -0 -1 -2 -2 -1 -0 0 1 1 0 -1 -1 -1 -1 -1 -0 -0 -0 -1 -1 -1 -1 0 0 1 0 0 -0 -0 -0 -0 -0 0 1 2 2 0 -1 -1
1 -1 -3 -2 -1 0 -0 -0 1 2 3 4 4 4 3 5 6 6 6 2 0 -0 -0 0 2 3 2 1 -0 -2 -3 -3 -2 -1 0 1 1 1 0 -2 -2 -1 0 -1 -1 -0 -1 -1 -0 1 2 3 2 2 2 1 0 1 3 3 2 2 2 1 1 -0 -2 -2 -2 -1 0 1 1 1 0 -0 -1 -1 -1 -1 -0 -1 -1 -1 -1 -1 -0 -0 0 0 0 -0 -0 -0 -0 -0 -0 0 2 2 1 1 0
0 -2 -4 -3 -4 -4 -4 -3 -2 -1 0 0 -0 -1 -1 1 4 7 7 2 -2 -4 -5 -3 -1 1 2 1 0 -2 -3 -3 -2 -0 1 2 3 2 0 -2 -2 -1 -0 -1 -1 -1 -1 -1 -1 0 2 3 3 2 2 1 2 3 3 2 2 2 1 1 1 0 -1 -2 -2 -2 -1 1 2 2 1 0 -0 -1 -1 -1 -1 -1 -1 -1 -1 -0 -0 -0 -0 0 0 0 -0 -0 -1 -0 -0 0 2 2 1 0 1
-1 -2 -3 -3 -3 -3 -3 -2 -2 -1 0 -1 -1 -2 -3 -2 -0 2 2 -1 -4 -6 -7 -5 -3 -2 -1 -0 -1 -2 -2 -3 -2 0 3 2 2 2 1 -1 -2 -2 -1 -0 -1 -2 -2 -1 -1 0 3 3 3 3 2 3 3 3 2 2 2 1 0 1 0 -0 -1 -2 -2 -2 -2 -0 1 1 1 1 0 -0 -0 -0 -0 -1 -1 -1 -1 -0 0 0 0 0 1 1 0 -0 -0 -0 0 1 2 4 3 1 1
-1 -2 -1 -2 -3 -2 -2 -1 0 1 1 0 -0 -1 -3 -3 -3 -3 -3 -3 -4 -6 -6 -3 -2 -2 -2 -3 -3 -3 -2 -4 -3 0 6 3 0 -1 -2 -0 -1 -2 -2 -1 -0 -1 -2 -0 1 2 3 3 3 3 3 4 3 2 1 3 2 1 0 0 -0 -1 -1 -1 -2 -2 -2 -1 -1 -0 0 0 0 0 0 0 -0 -1 -1 -1 -1 -0 -0 0 1 1 1 1 1 0 0 0 1 1 2 4 4 3 2
10 7 5 2 -1 -3 -3 -1 0 1 0 1 1 0 -2 -3 -4 -5 -5 -4 -4 -4 -3 -3 -3 -1 0 -3 -4 -4 -2 -5 -2 2 4 1 0 -1 -4 -3 -2 0 0 -1 0 0 -1 1 2 3 3 3 3 3 3 3 2 1 1 2 2 1 0 0 -0 -1 -1 -1 -1 -1 -2 -2 -2 -1 -1 -1 -0 -0 0 0 0 -0 -0 -1 -1 -1 -1 -0 1 1 2 2 1 1 0 1 1 1 1 2 3 5 5
34 29 22 15 10 5 3 1 0 -0 -1 0 1 0 -2 -3 -4 -4 -4 -3 -4 -3 -2 -4 -5 -4 2 -0 -4 -5 -1 -4 -1 4 4 -4 -2 1 -1 -3 -1 2 -0 -0 -0 0 2 3 2 2 3 3 3 3 2 2 1 1 1 2 3 2 1 0 -0 -0 -1 -1 -1 -1 -1 -2 -2 -2 -2 -1 -1 -1 -0 -0 -0 0 0 -0 -1 -1 -1 -1 0 1 1 1 1 1 0 0 1 1 1 0 2 4 6
34 34 33 29 24 20 18 11 6 2 1 1 -0 -2 -4 -4 -5 -4 -3 -3 -4 -4 -2 -3 -5 -5 -1 1 -2 -4 -1 -2 -1 2 5 -4 -3 1 4 6 4 0 -2 1 -1 -2 6 3 1 1 2 1 2 2 1 1 1 1 1 2 2 2 1 1 0 -0 -0 -0 -0 -0 -1 -2 -2 -2 -2 -1 -1 -0 -0 -0 -0 0 0 0 0 -0 -1 -1 -0 0 0 0 0 0 -0 -0 -0 0 1 0 1 3 7
15 16 21 25 28 30 32 27 22 17 15 12 7 1 -2 -2 -3 -3 -2 -3 -4 -5 -3 -3 -2 -2 -2 1 0 -2 -5 -1 -1 -1 3 1 1 1 2 10 5 -1 0 7 1 -4 6 5 1 -2 2 4 2 0 0 2 1 1 2 2 2 1 1 1 0 0 -0 -0 -0 0 0 -1 -2 -2 -2 -2 -1 0 0 0 0 0 0 1 1 0 -1 -1 -0 -0 -0 -0 -0 -1 -1 -1 -1 0 1 -1 -1 1 6
6 4 4 12 21 27 30 27 22 19 16 14 11 8 4 3 2 1 1 -1 -3 -4 -2 -3 -0 2 1 -1 -0 -1 -6 -2 -0 0 1 2 6 7 -2 1 3 3 2 9 4 -3 -2 9 7 -1 -6 4 4 1 -0 2 2 1 2 2 1 1 1 1 1 0 0 -0 -0 0 0 -0 -1 -2 -2 -2 -1 0 1 0 -0 -0 -0 1 1 1 0 0 0 -0 -1 -1 -1 -1 -1 -1 -0 0 0 -1 -1 2 6
7 3 -1 2 7 11 13 11 9 7 5 4 3 2 3 3 3 3 3 2 0 -0 2 0 2 4 5 0 -1 -1 -2 -3 -0 2 0 -2 3 8 3 -2 -1 1 -1 3 4 1 -3 7 9 4 -7 2 3 0 -2 1 2 2 3 3 2 2 1 1 1 0 0 1 1 1 0 -0 -1 -1 -2 -2 -1 0 1 0 -0 -1 -1 1 1 1 1 1 0 -1 -1 -1 -1 -1 -1 -0 -0 -0 -1 -1 -2 -1 1
8 4 1 1 -0 -0 1 0 0 0 -0 -0 -1 -1 -0 0 1 2 3 3 3 4 6 6 5 5 6 4 1 -1 1 -0 -0 2 5 -1 -1 3 7 4 1 -2 -3 -2 -0 2 4 7 6 2 -6 7 7 1 -5 -0 2 2 3 4 3 2 1 1 0 0 1 1 2 1 0 0 -0 -1 -2 -2 -1 -0 0 0 -1 -1 -1 0 0 0 1 1 0 -1 -1 -1 -1 -0 -0 0 0 -0 -1 -2 -1 -0 1
12 8 4 4 3 1 -2 -1 -1 -1 -1 -0 -0 -0 -1 -0 0 1 1 0 0 1 3 6 7 5 5 6 5 4 6 5 4 4 10 5 2 1 4 4 3 2 3 -3 -3 -1 -2 7 6 -2 -13 8 12 5 -4 -1 1 2 3 3 3 2 1 0 -0 0 1 2 2 1 0 0 -0 -1 -2 -1 -0 0 0 -0 -1 -1 -0 0 0 0 1 1 0 -1 -1 -1 -1 0 1 1 0 -1 -2 -2 -1 0 2
12 10 8 9 8 6 2 -0 -1 -1 -1 -0 0 0 0 2 3 2 -0 -1 -2 -3 -2 -0 1 1 0 4 7 9 10 10 9 7 6 5 3 1 -0 -0 -1 -0 0 -3 -2 -1 -5 2 2 -1 -9 0 6 9 6 -1 -1 1 3 3 2 1 -0 -1 -1 0 2 2 2 1 -0 -0 -1 -1 -1 -0 0 0 0 -0 -0 -1 -0 -0 -0 0 1 1 1 -0 -1 -1 -1 -0 0 0 -0 -1 -2 -3 -1 1 3
9 10 10 10 9 8 6 3 0 -1 0 1 1 1 1 3 3 2 -0 -2 -3 -4 -3 -2 -2 -1 -0 2 5 8 8 7 6 3 -1 -1 -2 -1 -1 -3 -4 -4 -4 -3 -1 0 0 -2 -3 -3 1 -4 -2 6 14 5 1 0 2 2 2 1 -1 -1 -0 1 2 2 1 0 -1 -1 -1 -1 -1 -0 0 1 1 0 0 -0 -0 -0 -0 0 1 1 1 0 -1 -1 -1 -1 -1 -2 -3 -3 -3 -1 2 7 11
4 5 6 5 4 4 4 4 2 0 1 1 1 2 3 1 0 -0 -1 -2 -3 -3 -2 -2 -1 1 3 4 6 6 5 2 0 -1 -2 -4 -5 -4 1 -2 -3 -4 -2 -3 -2 -1 0 -2 -3 -4 -2 -6 -6 -1 9 11 9 5 2 2 2 1 -1 -1 1 2 3 2 1 -0 -2 -2 -1 -0 0 -0 -0 0 1 1 1 0 0 -0 0 0 1 1 0 0 -1 -1 -1 -1 -1 -2 -3 -4 -4 0 7 13 16
-1 0 1 -0 -1 -1 0 3 3 2 1 0 -0 -0 1 -0 -1 -2 -2 -2 -2 -1 -0 0 2 3 5 6 5 4 2 -0 -2 -2 -1 -2 -4 -4 0 0 -1 -2 -1 -2 -2 -2 -2 -3 -3 -2 -4 -7 -7 -5 -2 7 11 10 4 4 3 1 -1 1 3 4 3 1 0 -1 -2 -2 -1 0 0 -0 -1 -0 0 1 1 1 1 0 0 0 0 0 0 0 -0 -1 -0 -0 -1 -1 -2 -4 -4 -2 2 5 6
Height
5872 5872 5872 5873 5873 5873 5874 5874 5874 5875 5875 5876 5876 5877 5877 5877 5877 5877 5878 5878 5878 5878 5878 5878 5877 5877 5877 5877 5877 5877 5878 5878 5878 5879 5879 5880 5880 5880 5880 5880 5880 5879 5879 5879 5879 5879 5879 5879 5879 5879 5879 5878 5878 5878 5878 5877 5877 5877 5877 5876 5876 5876 5876 5875 5875 5875 5874 5874 5874 5873 5873 5873 5873 5872 5872 5872 5871 5871 5871 5870 5870 5870 5869 5869 5868 5868 5867 5867 5867 5866 5866 5865 5865 5864 5864 5863 5863 5862 5862 5862 5861 5860 5860
5871 5871 5872 5872 5872 5872 5873 5873 5873 5874 5874 5875 5875 5876 5876 5876 5877 5877 5877 5877 5877 5877 5877 5877 5877 5877 5877 5877 5877 5877 5877 5877 5877 5878 5878 5879 5879 5879 5879 5879 5879 5879 5879 5879 5879 5879 5879 5879 5878 5878 5878 5878 5877 5877 5877 5877 5877 5876 5876 5876 5875 5875 5875 5875 5874 5874 5874 5873 5873 5873 5872 5872 5872 5872 5871 5871 5871 5871 5870 5870 5869 5869 5868 5868 5868 5867 5867 5866 5866 5865 5865 5864 5864 5863 5863 5862 5862 5862 5861 5861 5860 5860 5859
5870 5870 5871 5871 5871 5872 5872 5872 5872 5873 5873 5874 5874 5875 5875 5875 5876 5876 5876 5877 5877 5877 5877 5876 5876 5876 5876 5876 5876 5876 5876 5876 5877 5877 5877 5878 5878 5878 5878 5878 5878 5878 5878 5878 5878 5878 5878 5878 5878 5877 5877 5877 5877 5877 5876 5876 5876 5876 5875 5875 5875 5874 5874 5874 5874 5873 5873 5873 5872 5872 5872 5872 5871 5871 5871 5871 5870 5870 5870 5869 5869 5868 5868 5867 5867 5867 5866 5866 5865 5864 5864 5863 5863 5862 5862 5862 5861 5861 5860 5860 5859 5859 5858
5869 5870 5870 5870 5871 5871 5871 5872 5872 5872 5872 5873 5873 5874 5874 5874 5875 5875 5875 5876 5876 5876 5876 5876 5876 5875 5875 5875 5875 5875 5875 5875 5876 5876 5877 5877 5877 5877 5877 5877 5877 5877 5877 5877 5877 5877 5877 5877 5877 5877 5877 5877 5876 5876 5876 5875 5875 5875 5874 5874 5874 5874 5873 5873 5873 5873 5872 5872 5872 5872 5871 5871 5871 5871 5870 5870 5870 5869 5869 5869 5868 5868 5867 5867 5866 5866 5865 5865 5864 5864 5863 5862 5862 5862 5861 5861 5860 5860 5859 5859 5858 5858 5857
5868 5868 5869 5869 5870 5870 5870 5871 5871 5871 5872 5872 5872 5873 5873 5873 5874 5874 5874 5875 5875 5875 5875 5875 5875 5875 5874 5874 5874 5874 5874 5875 5875 5875 5875 5876 5876 5876 5876 5876 5876 5876 5876 5877 5877 5877 5877 5877 5876 5876 5876 5876 5876 5875 5875 5875 5874 5874 5874 5873 5873 5873 5873 5872 5872 5872 5872 5871 5871 5871 5871 5870 5870 5870 5870 5869 5869 5868 5868 5868 5867 5867 5867 5866 5866 5865 5865 5864 5863 5863 5862 5862 5861 5861 5860 5860 5859 5859 5858 5858 5857 5857 5856
5867 5867 5868 5868 5868 5869 5869 5870 5870 5870 5871 5871 5871 5872 5872 5872 5873 5873 5873 5874 5874 5874 5874 5874 5874 5874 5874 5873 5873 5873 5873 5874 5874 5874 5874 5875 5875 5875 5875 5875 5875 5875 5875 5876 5876 5876 5876 5876 5876 5875 5875 5875 5875 5874 5874 5874 5874 5873 5873 5873 5872 5872 5872 5872 5872 5871 5871 5871 5870 5870 5870 5870 5869 5869 5869 5868 5868 5867 5867 5867 5867 5866 5866 5865 5865 5864 5864 5863 5862 5862 5861 5861 5860 5860 5859 5859 5858 5858 5857 5857 5856 5856 5855
5866 5867 5867 5867 5867 5868 5868 5868 5869 5869 5870 5870 5870 5871 5871 5872 5872 5872 5872 5872 5873 5873 5873 5873 5873 5873 5873 5873 5872 5872 5872 5873 5873 5873 5873 5874 5874 5874 5874 5874 5874 5874 5875 5875 5875 5875 5875 5875 5875 5874 5874 5874 5874 5874 5873 5873 5873 5872 5872 5872 5872 5872 5871 5871 5871 5870 5870 5870 5870 5869 5869 5869 5868 5868 5868 5867 5867 5867 5866 5866 5865 5865 5865 5864 5864 5863 5862 5862 5862 5861 5860 5860 5859 5859 5858 5858 5857 5857 5856 5856 5855 5854 5854
5865 5865 5866 5866 5866 5867 5867 5867 5868 5868 5868 5869 5869 5870 5870 5870 5871 5871 5871 5872 5872 5872 5872 5872 5872 5872 5872 5872 5872 5872 5872 5872 5872 5872 5872 5872 5873 5873 5873 5873 5873 5874 5874 5874 5874 5874 5874 5874 5873 5873 5873 5873 5873 5873 5872 5872 5872 5872 5871 5871 5871 5871 5870 5870 5870 5869 5869 5869 5868 5868 5868 5868 5867 5867 5867 5866 5866 5866 5865 5865 5864 5864 5863 5863 5862 5862 5862 5861 5860 5860 5859 5859 5858 5857 5857 5857 5856 5855 5855 5854 5854 5853 5852
5864 5864 5865 5865 5865 5866 5866 5866 5867 5867 5867 5868 5868 5868 5869 5869 5870 5870 5870 5870 5871 5871 5871 5871 5871 5871 5871 5871 5871 5871 5871 5871 5871 5871 5871 5872 5872 5872 5872 5872 5872 5872 5873 5873 5873 5873 5873 5872 5872 5872 5872 5872 5872 5872 5872 5872 5871 5871 5871 5870 5870 5870 5869 5869 5869 5868 5868 5868 5867 5867 5867 5867 5866 5866 5866 5865 5865 5864 5864 5863 5863 5862 5862 5862 5861 5861 5860 5860 5859 5859 5858 5857 5857 5857 5856 5855 5855 5854 5854 5853 5852 5852 5851
5862 5863 5863 5864 5864 5864 5865 5865 5865 5866 5866 5867 5867 5867 5867 5868 5868 5868 5869 5869 5869 5869 5870 5870 5870 5870 5870 5870 5870 5870 5870 5870 5870 5870 5870 5871 5871 5871 5871 5871 5872 5872 5872 5872 5872 5872 5872 5872 5872 5872 5872 5871 5871 5871 5871 5871 5870 5870 5870 5869 5869 5868 5868 5868 5868 5867 5867 5867 5866 5866 5866 5865 5865 5865 5864 5864 5864 5863 5863 5862 5862 5861 5861 5860 5860 5859 5859 5858 5858 5857 5857 5856 5856 5855 5855 5854 5853 5853 5852 5852 5851 5850 5850
5861 5862 5862 5862 5863 5863 5863 5864 5864 5864 5865 5865 5866 5866 5866 5867 5867 5867 5867 5868 5868 5868 5868 5868 5869 5869 5869 5869 5869 5869 5869 5869 5869 5869 5869 5869 5870 5870 5870 5870 5870 5870 5871 5871 5871 5871 5871 5871 5871 5870 5870 5870 5870 5870 5870 5870 5869 5869 5868 5868 5868 5867 5867 5867 5867 5866 5866 5866 5865 5865 5865 5864 5864 5864 5863 5863 5862 5862 5862 5861 5861 5860 5860 5859 5858 5858 5857 5857 5857 5856 5855 5855 5854 5854 5853 5852 5852 5851 5851 5850 5850 5849 5848
5859 5860 5861 5861 5861 5862 5862 5862 5863 5863 5863 5864 5864 5865 5865 5865 5866 5866 5866 5867 5867 5867 5867 5867 5867 5867 5868 5868 5867 5867 5867 5868 5868 5868 5868 5868 5868 5868 5869 5869 5869 5869 5869 5869 5869 5870 5870 5869 5869 5869 5869 5869 5869 5869 5868 5868 5868 5868 5867 5867 5867 5867 5866 5866 5866 5865 5865 5864 5864 5864 5863 5863 5863 5862 5862 5862 5861 5861 5860 5860 5859 5859 5858 5858 5857 5857 5856 5856 5855 5854 5854 5853 5853 5852 5852 5851 5850 5850 5849 5849 5848 5847 5847
5858 5858 5859 5859 5860 5860 5861 5861 5861 5862 5862 5862 5863 5863 5864 5864 5864 5865 5865 5865 5865 5866 5866 5866 5866 5867 5867 5867 5867 5867 5867 5867 5867 5867 5867 5867 5867 5867 5867 5867 5868 5868 5868 5868 5868 5868 5868 5868 5868 5868 5868 5868 5868 5867 5867 5867 5867 5867 5866 5866 5866 5865 5865 5865 5864 5864 5864 5863 5863 5862 5862 5862 5862 5861 5861 5861 5860 5860 5859 5859 5858 5857 5857 5857 5856 5855 5855 5854 5853 5853 5852 5852 5851 5851 5850 5850 5849 5848 5848 5847 5847 5846 5845
5856 5857 5857 5858 5858 5859 5859 5859 5860 5860 5861 5861 5861 5862 5862 5862 5863 5863 5863 5864 5864 5864 5864 5865 5865 5865 5865 5865 5866 5865 5865 5865 5866 5866 5866 5866 5866 5866 5866 5866 5867 5867 5867 5867 5867 5867 5867 5867 5867 5867 5867 5867 5866 5866 5866 5866 5866 5865 5865 5865 5864 5864 5864 5863 5863 5863 5862 5862 5862 5862 5861 5861 5861 5860 5860 5859 5859 5858 5858 5857 5857 5856 5856 5855 5854 5854 5853 5852 5852 5852 5851 5850 5850 5849 5848 5848 5847 5847 5846 5846 5845 5844 5844
5854 5855 5855 5856 5857 5857 5857 5858 5858 5859 5859 5859 5860 5860 5861 5861 5861 5862 5862 5862 5862 5863 5863 5863 5863 5864 5864 5864 5864 5864 5864 5864 5864 5864 5865 5865 5865 5865 5865 5865 5865 5865 5865 5865 5865 5865 5865 5865 5865 5865 5865 5865 5865 5865 5865 5864 5864 5864 5864 5863 5863 5863 5862 5862 5862 5862 5861 5861 5861 5860 5860 5860 5859 5859 5858 5858 5857 5857 5857 5856 5856 5855 5854 5854 5853 5852 5852 5851 5851 5850 5849 5849 5848 5847 5847 5846 5846 5845 5844 5844 5843 5842 5842
5852 5853 5853 5854 5855 5855 5856 5856 5857 5857 5857 5858 5858 5859 5859 5859 5860 5860 5861 5861 5861 5861 5862 5862 5862 5862 5862 5863 5863 5863 5863 5863 5863 5863 5863 5863 5864 5864 5864 5864 5864 5864 5864 5864 5864 5864 5864 5864 5864 5864 5864 5864 5863 5863 5863 5863 5863 5862 5862 5862 5862 5862 5861 5861 5861 5860 5860 5860 5859 5859 5858 5858 5858 5857 5857 5857 5856 5856 5855 5855 5854 5853 5853 5852 5852 5851 5850 5850 5849 5848 5848 5847 5847 5846 5845 5845 5844 5843 5843 5842 5841 5841 5840
5850 5851 5852 5852 5853 5854 5854 5855 5855 5855 5856 5856 5857 5857 5857 5858 5858 5858 5859 5859 5860 5860 5860 5860 5861 5861 5861 5862 5862 5862 5862 5862 5862 5862 5862 5862 5862 5862 5862 5862 5862 5862 5862 5862 5862 5862 5862 5862 5862 5862 5862 5862 5862 5862 5862 5862 5861 5861 5861 5860 5860 5860 5860 5859 5859 5859 5859 5858 5858 5857 5857 5857 5856 5856 5855 5855 5854 5854 5854 5853 5852 5852 5851 5851 5850 5849 5849 5848 5847 5847 5846 5845 5845 5844 5843 5843 5842 5842 5841 5840 5840 5839 5838
5848 5849 5850 5851 5851 5852 5852 5853 5853 5854 5854 5854 5855 5855 5856 5856 5857 5857 5857 5857 5858 5858 5858 5859 5859 5859 5860 5860 5860 5860 5861 5861 5861 5861 5861 5861 5861 5861 5861 5861 5861 5861 5861 5861 5861 5861 5861 5861 5861 5861 5861 5861 5860 5860 5860 5860 5860 5859 5859 5859 5859 5858 5858 5858 5858 5857 5857 5857 5857 5856 5856 5855 5855 5854 5854 5853 5853 5852 5852 5852 5851 5850 5850 5849 5848 5848 5847 5846 5846 5845 5844 5843 5843 5842 5842 5841 5840 5840 5839 5838 5838 5837 5837
5847 5847 5848 5849 5849 5850 5851 5851 5852 5852 5852 5853 5853 5854 5854 5854 5855 5855 5856 5856 5856 5857 5857 5857 5857 5858 5858 5858 5859 5859 5859 5859 5859 5859 5859 5859 5860 5860 5860 5860 5860 5860 5860 5860 5860 5860 5860 5859 5859 5859 5859 5859 5859 5858 5858 5858 5858 5858 5857 5857 5857 5857 5857 5856 5856 5856 5855 5855 5855 5854 5854 5853 5853 5853 5852 5852 5851 5851 5850 5850 5849 5849 5848 5847 5847 5846 5845 5845 5844 5843 5842 5842 5841 5840 5840 5839 5838 5838 5837 5837 5836 5835 5834
5845 5845 5846 5847 5847 5848 5849 5849 5849 5850 5850 5851 5851 5852 5852 5852 5853 5853 5854 5854 5854 5855 5855 5856 5856 5856 5857 5857 5857 5857 5857 5858 5858 5858 5858 5858 5858 5858 5858 5858 5858 5858 5858 5858 5858 5858 5858 5858 5858 5857 5857 5857 5857 5857 5857 5857 5856 5856 5856 5856 5855 5855 5855 5855 5854 5854 5854 5853 5853 5852 5852 5852 5851 5851 5851 5850 5850 5849 5848 5848 5847 5847 5846 5846 5845 5844 5843 5843 5842 5841 5840 5840 5839 5838 5837 5837 5836 5836 5835 5834 5834 5833 5832
5842 5843 5844 5845 5846 5846 5847 5847 5847 5848 5848 5849 5849 5850 5850 5851 5851 5852 5852 5852 5852 5853 5853 5854 5854 5854 5855 5855 5855 5856 5856 5856 5856 5856 5857 5857 5857 5857 5857 5857 5857 5857 5857 5857 5857 5857 5856 5856 5856 5856 5856 5856 5855 5855 5855 5855 5855 5854 5854 5854 5854 5853 5853 5853 5852 5852 5852 5852 5851 5851 5850 5850 5849 5849 5848 5848 5847 5847 5847 5846 5846 5845 5844 5844 5843 5842 5842 5841 5840 5839 5838 5838 5837 5836 5836 5835 5834 5834 5833 5832 5832 5831 5831
5841 5841 5842 5843 5843 5844 5844 5845 5845 5846 5846 5847 5847 5848 5848 5849 5849 5849 5850 5850 5851 5851 5852 5852 5852 5852 5853 5853 5854 5854 5854 5854 5854 5855 5855 5855 5855 5855 5855 5855 5855 5855 5855 5855 5855 5855 5855 5855 5854 5854 5854 5854 5854 5853 5853 5853 5853 5853 5852 5852 5852 5852 5851 5851 5851 5850 5850 5850 5849 5849 5848 5848 5847 5847 5847 5846 5846 5845 5844 5844 5843 5843 5842 5842 5841 5840 5840 5839 5838 5837 5837 5836 5835 5835 5834 5833 5832 5832 5831 5831 5830 5829 5828
5838 5839 5840 5841 5841 5842 5842 5843 5843 5844 5844 5845 5845 5846 5846 5847 5847 5847 5848 5848 5849 5849 5849 5850 5850 5851 5851 5852 5852 5852 5852 5852 5853 5853 5853 5853 5853 5853 5853 5853 5853 5853 5853 5853 5853 5853 5853 5853 5853 5853 5852 5852 5852 5852 5852 5852 5852 5851 5851 5851 5850 5850 5850 5849 5849 5849 5848 5848 5847 5847 5847 5846 5846 5845 5845 5844 5844 5843 5842 5842 5841 5841 5840 5839 5839 5838 5837 5837 5836 5836 5835 5834 5833 5833 5832 5832 5831 5830 5829 5829 5828 5827 5827
5836 5837 5838 5838 5839 5840 5840 5841 5841 5842 5842 5843 5843 5844 5844 5845 5845 5846 5846 5846 5847 5847 5847 5848 5848 5849 5849 5849 5850 5850 5851 5851 5851 5851 5851 5851 5852 5852 5852 5852 5852 5852 5852 5852 5852 5852 5852 5852 5851 5851 5851 5851 5851 5851 5850 5850 5850 5850 5849 5849 5849 5848 5848 5848 5847 5847 5847 5846 5846 5845 5845 5844 5844 5843 5842 5842 5842 5841 5841 5840 5839 5839 5838 5837 5837 5836 5836 5835 5834 5834 5833 5832 5832 5831 5830 5830 5829 5828 5827 5827 5826 5826 5825
5834 5835 5836 5836 5837 5837 5838 5839 5839 5840 5840 5841 5841 5842 5842 5843 5843 5843 5844 5844 5845 5845 5846 5846 5846 5847 5847 5847 5848 5848 5848 5849 5849 5849 5849 5849 5850 5850 5850 5850 5850 5850 5850 5850 5850 5850 5850 5850 5850 5850 5849 5849 5849 5849 5849 5849 5848 5848 5848 5847 5847 5847 5847 5846 5846 5846 5845 5845 5844 5843 5843 5842 5842 5841 5841 5840 5840 5839 5838 5838 5837 5837 5836 5835 5835 5834 5833 5833 5832 5832 5831 5830 5830 5829 5828 5828 5827 5826 5826 5825 5824 5824 5823
5832 5832 5833 5834 5835 5835 5836 5837 5837 5838 5838 5839 5839 5840 5840 5841 5841 5841 5842 5842 5842 5843 5843 5844 5844 5845 5845 5846 5846 5846 5847 5847 5847 5847 5847 5847 5848 5848 5848 5848 5848 5848 5848 5848 5848 5848 5848 5848 5848 5848 5848 5848 5847 5847 5847 5847 5847 5847 5846 5846 5846 5845 5845 5845 5844 5844 5843 5843 5842 5842 5841 5841 5840 5839 5839 5838 5837 5837 5836 5836 5835 5835 5834 5833 5833 5832 5832 5831 5830 5830 5829 5828 5827 5827 5826 5826 5825 5824 5824 5823 5822 5822 5821
5829 5830 5831 5832 5832 5833 5834 5834 5835 5836 5836 5837 5837 5838 5838 5838 5839 5839 5840 5840 5840 5841 5841 5842 5842 5842 5843 5843 5844 5844 5844 5845 5845 5845 5845 5846 5846 5846 5846 5846 5846 5846 5846 5846 5846 5846 5846 5846 5846 5846 5846 5846 5846 5846 5846 5845 5845 5845 5845 5844 5844 5844 5843 5843 5842 5842 5842 5841 5841 5840 5840 5839 5838 5837 5837 5836 5835 5835 5834 5833 5833 5832 5832 5831 5831 5830 5829 5829 5828 5827 5827 5826 5826 5825 5824 5824 5823 5822 5822 5821 5820 5820 5819
5827 5827 5828 5829 5830 5831 5832 5832 5833 5833 5834 5835 5835 5836 5836 5836 5837 5837 5837 5838 5838 5839 5839 5839 5840 5840 5841 5841 5842 5842 5842 5842 5843 5843 5843 5844 5844 5844 5844 5844 5844 5844 5844 5844 5844 5844 5844 5844 5844 5844 5844 5844 5844 5844 5844 5843 5843 5843 5843 5843 5842 5842 5842 5841 5841 5840 5840 5840 5839 5838 5838 5837 5837 5836 5835 5834 5833 5833 5832 5832 5831 5830 5829 5829 5828 5828 5827 5826 5826 5825 5824 5824 5823 5823 5822 5822 5821 5820 5820 5819 5818 5817 5817
5824 5825 5826 5827 5827 5828 5829 5830 5831 5831 5832 5832 5833 5833 5834 5834 5834 5835 5835 5836 5836 5837 5837 5837 5838 5838 5838 5839 5839 5840 5840 5841 5841 5841 5841 5842 5842 5842 5842 5842 5842 5842 5842 5842 5842 5842 5842 5842 5842 5842 5842 5842 5842 5842 5842 5842 5842 5841 5841 5841 5841 5840 5840 5839 5839 5839 5838 5838 5837 5837 5836 5835 5834 5833 5832 5832 5831 5830 5830 5829 5828 5828 5827 5826 5826 5825 5824 5824 5823 5823 5822 5822 5821 5821 5820 5819 5819 5818 5817 5817 5816 5815 5815
5821 5822 5823 5824 5825 5826 5826 5827 5828 5829 5829 5830 5831 5831 5831 5832 5832 5832 5833 5833 5834 5834 5835 5835 5836 5836 5836 5837 5837 5837 5838 5838 5838 5839 5839 5839 5840 5840 5840 5840 5840 5840 5840 5840 5840 5840 5840 5840 5840 5840 5840 5840 5840 5840 5840 5840 5839 5839 5839 5839 5838 5838 5838 5837 5837 5837 5836 5836 5835 5835 5834 5833 5832 5831 5830 5829 5828 5828 5827 5827 5826 5825 5825 5824 5823 5822 5822 5822 5821 5820 5820 5819 5819 5818 5817 5817 5816 5816 5815 5814 5814 5813 5812
5819 5820 5821 5822 5822 5823 5824 5825 5825 5826 5827 5827 5828 5828 5829 5829 5830 5830 5831 5831 5831 5832 5832 5833 5833 5833 5834 5834 5835 5835 5835 5836 5836 5837 5837 5837 5837 5837 5838 5838 5838 5838 5838 5838 5838 5838 5838 5838 5838 5838 5838 5838 5838 5838 5838 5837 5837 5837 5837 5837 5837 5836 5836 5836 5835 5835 5834 5834 5833 5832 5832 5831 5830 5829 5828 5827 5826 5825 5825 5824 5823 5823 5822 5822 5821 5820 5819 5819 5818 5818 5817 5817 5816 5816 5815 5814 5814 5813 5813 5812 5812 5811 5810
5816 5817 5818 5819 5820 5821 5821 5822 5823 5823 5824 5825 5825 5826 5826 5827 5827 5828 5828 5828 5829 5829 5830 5830 5831 5831 5832 5832 5832 5832 5833 5833 5834 5834 5834 5835 5835 5835 5835 5836 5836 5836 5836 5836 5836 5836 5836 5836 5836 5836 5836 5836 5836 5836 5836 5835 5835 5835 5835 5835 5835 5834 5834 5833 5833 5832 5832 5831 5831 5830 5829 5828 5827 5827 5826 5825 5824 5823 5822 5822 5821 5820 5820 5819 5818 5817 5817 5817 5816 5816 5815 5814 5814 5813 5813 5812 5812 5811 5811 5810 5809 5809 5808
5813 5814 5816 5817 5817 5818 5819 5819 5820 5821 5821 5822 5823 5823 5824 5825 5825 5825 5826 5826 5827 5827 5827 5828 5828 5829 5829 5829 5830 5830 5831 5831 5831 5832 5832 5832 5832 5833 5833 5833 5833 5833 5833 5833 5833 5833 5834 5834 5833 5833 5833 5833 5833 5833 5833 5833 5833 5833 5833 5832 5832 5832 5832 5831 5831 5830 5830 5829 5828 5827 5827 5826 5825 5824 5823 5822 5822 5821 5820 5819 5818 5818 5817 5817 5816 5815 5814 5814 5813 5813 5812 5812 5812 5811 5811 5810 5809 5809 5808 5808 5807 5807 5806
5810 5811 5812 5813 5814 5815 5816 5817 5817 5818 5818 5819 5820 5821 5822 5822 5822 5823 5823 5824 5824 5825 5825 5825 5826 5826 5827 5827 5827 5827 5828 5828 5829 5829 5829 5830 5830 5830 5830 5830 5831 5831 5831 5831 5831 5831 5831 5831 5831 5831 5831 5831 5831 5831 5831 5831 5831 5830 5830 5830 5830 5829 5829 5828 5828 5827 5827 5826 5826 5825 5824 5823 5822 5821 5820 5819 5819 5818 5817 5817 5816 5815 5815 5814 5813 5813 5812 5812 5811 5810 5810 5809 5809 5808 5808 5807 5807 5806 5806 5805 5805 5805 5804
5806 5807 5809 5810 5811 5812 5813 5814 5815 5815 5816 5816 5817 5818 5819 5820 5820 5821 5821 5821 5822 5822 5822 5823 5823 5823 5824 5824 5825 5825 5825 5826 5826 5827 5827 5827 5827 5827 5828 5828 5828 5828 5828 5828 5828 5828 5828 5828 5828 5828 5829 5829 5829 5829 5828 5828 5828 5827 5827 5827 5827 5826 5826 5825 5825 5824 5824 5823 5823 5822 5821 5820 5819 5818 5817 5817 5816 5815 5815 5814 5814 5813 5812 5812 5811 5810 5810 5809 5808 5808 5807 5807 5807 5806 5806 5805 5804 5804 5803 5803 5803 5803 5802
5802 5804 5805 5807 5808 5809 5810 5811 5812 5812 5813 5813 5814 5816 5817 5817 5818 5818 5818 5819 5819 5820 5820 5821 5821 5821 5821 5822 5822 5822 5823 5823 5823 5824 5824 5824 5825 5825 5825 5825 5825 5826 5826 5826 5826 5826 5826 5826 5826 5826 5826 5826 5826 5826 5826 5826 5825 5825 5824 5824 5823 5823 5822 5822 5822 5821 5821 5820 5820 5819 5818 5817 5816 5815 5814 5814 5813 5812 5812 5812 5812 5811 5810 5809 5808 5808 5807 5807 5806 5805 5805 5804 5804 5803 5803 5802 5802 5801 5801 5801 5801 5800 5800
5799 5801 5802 5803 5805 5806 5807 5808 5809 5809 5810 5811 5812 5813 5814 5815 5815 5816 5816 5816 5817 5817 5817 5818 5818 5818 5819 5819 5819 5820 5820 5821 5821 5821 5822 5822 5822 5822 5823 5823 5823 5823 5823 5823 5823 5823 5823 5823 5823 5823 5824 5824 5824 5823 5823 5823 5822 5822 5821 5821 5820 5820 5819 5819 5818 5818 5817 5817 5817 5816 5815 5814 5813 5812 5812 5811 5810 5809 5808 5808 5808 5808 5808 5807 5807 5806 5805 5804 5804 5803 5802 5802 5801 5801 5800 5800 5799 5799 5799 5799 5798 5798 5797
5797 5798 5799 5800 5802 5803 5804 5805 5806 5806 5807 5808 5809 5810 5811 5812 5812 5813 5813 5814 5814 5815 5815 5816 5816 5816 5816 5817 5817 5817 5817 5818 5818 5818 5819 5819 5820 5820 5820 5820 5820 5820 5820 5820 5820 5820 5820 5820 5821 5821 5821 5821 5821 5820 5820 5819 5819 5818 5818 5817 5817 5817 5816 5816 5816 5815 5815 5814 5813 5812 5812 5811 5810 5809 5808 5807 5807 5806 5805 5805 5805 5805 5805 5805 5805 5804 5804 5803 5802 5801 5800 5799 5799 5798 5798 5797 5797 5797 5797 5796 5796 5795 5795
5794 5795 5796 5797 5799 5800 5801 5802 5802 5803 5804 5805 5807 5807 5809 5809 5810 5810 5811 5811 5812 5812 5813 5813 5813 5813 5814 5814 5814 5815 5815 5815 5816 5816 5816 5817 5817 5817 5817 5817 5817 5817 5817 5817 5817 5817 5818 5818 5818 5818 5818 5818 5817 5817 5817 5816 5816 5815 5815 5814 5814 5813 5813 5813 5812 5812 5812 5811 5810 5809 5808 5807 5806 5806 5805 5804 5803 5803 5802 5802 5802 5802 5802 5801 5801 5801 5801 5800 5799 5799 5798 5797 5797 5796 5796 5796 5795 5795 5794 5794 5793 5792 5792
5790 5792 5793 5794 5796 5797 5798 5798 5799 5800 5802 5803 5804 5805 5806 5807 5807 5807 5808 5809 5809 5810 5810 5810 5811 5811 5811 5811 5812 5812 5812 5813 5813 5813 5813 5814 5814 5814 5814 5814 5814 5814 5814 5815 5815 5815 5815 5815 5815 5815 5815 5815 5814 5814 5813 5812 5812 5812 5811 5811 5811 5810 5810 5810 5809 5809 5808 5808 5807 5807 5806 5804 5803 5802 5802 5801 5800 5799 5799 5799 5799 5799 5799 5798 5798 5797 5797 5796 5796 5796 5796 5796 5795 5795 5794 5794 5794 5793 5792 5792 5791 5791 5790
5787 5789 5790 5791 5792 5793 5795 5795 5796 5797 5799 5800 5801 5802 5803 5804 5804 5805 5805 5806 5807 5807 5807 5807 5808 5808 5808 5809 5809 5809 5810 5810 5810 5810 5811 5811 5811 5811 5811 5811 5811 5811 5812 5812 5812 5812 5812 5812 5812 5812 5812 5811 5811 5810 5810 5809 5809 5808 5808 5807 5807 5807 5807 5806 5806 5806 5805 5805 5804 5803 5802 5801 5800 5799 5798 5797 5796 5796 5796 5796 5796 5796 5796 5795 5795 5794 5793 5793 5792 5792 5792 5793 5793 5793 5792 5792 5792 5791 5790 5790 5789 5789 5788
5785 5786 5787 5789 5790 5791 5792 5792 5793 5795 5796 5797 5798 5799 5800 5801 5802 5802 5802 5803 5804 5804 5805 5805 5805 5805 5806 5806 5807 5807 5807 5807 5807 5807 5808 5808 5808 5808 5808 5808 5808 5808 5808 5808 5808 5808 5808 5808 5808 5808 5808 5808 5807 5807 5806 5806 5805 5805 5804 5803 5803 5803 5803 5803 5803 5803 5802 5802 5801 5800 5800 5798 5797 5796 5795 5794 5793 5793 5793 5793 5793 5793 5792 5792 5792 5791 5791 5790 5790 5789 5789 5789 5790 5790 5790 5790 5789 5789 5787 5787 5787 5786 5786
5783 5784 5785 5786 5787 5788 5789 5790 5791 5792 5793 5794 5795 5796 5797 5798 5798 5799 5800 5800 5801 5802 5802 5802 5802 5802 5802 5803 5803 5804 5804 5804 5804 5805 5805 5805 5805 5805 5805 5805 5805 5805 5805 5805 5805 5805 5805 5805 5805 5805 5805 5805 5804 5803 5803 5802 5802 5801 5800 5800 5800 5800 5800 5800 5800 5800 5799 5798 5798 5797 5797 5796 5794 5793 5792 5791 5790 5790 5790 5790 5790 5790 5789 5789 5788 5788 5788 5787 5787 5787 5787 5787 5787 5787 5787 5787 5787 5786 5786 5785 5784 5783 5783
5781 5782 5783 5784 5785 5786 5787 5787 5788 5789 5790 5790 5792 5793 5794 5795 5795 5796 5797 5797 5798 5799 5799 5799 5799 5799 5799 5799 5800 5800 5801 5801 5802 5802 5802 5801 5801 5802 5802 5802 5802 5802 5802 5802 5802 5802 5802 5802 5802 5802 5802 5802 5801 5800 5799 5799 5798 5797 5796 5796 5797 5797 5797 5797 5797 5796 5795 5795 5795 5794 5794 5792 5792 5790 5789 5788 5787 5787 5787 5787 5787 5787 5786 5786 5786 5785 5785 5785 5785 5785 5785 5784 5784 5784 5784 5784 5784 5784 5784 5783 5782 5781 5781
5779 5780 5781 5782 5782 5783 5784 5785 5785 5786 5787 5787 5788 5789 5791 5791 5792 5793 5794 5795 5795 5796 5796 5796 5795 5795 5795 5796 5796 5797 5797 5798 5798 5798 5798 5798 5798 5798 5799 5799 5799 5799 5799 5799 5799 5799 5799 5799 5799 5799 5798 5798 5798 5797 5797 5796 5794 5794 5793 5793 5793 5794 5794 5794 5793 5792 5792 5792 5791 5791 5790 5789 5788 5787 5786 5785 5785 5784 5784 5784 5784 5784 5783 5783 5782 5782 5782 5782 5782 5782 5782 5782 5782 5782 5782 5782 5782 5782 5782 5781 5780 5779 5778
5777 5777 5778 5779 5780 5781 5781 5782 5782 5783 5784 5784 5785 5786 5787 5788 5789 5789 5791 5791 5792 5792 5792 5792 5792 5792 5792 5792 5793 5793 5794 5794 5795 5795 5795 5795 5795 5795 5796 5796 5796 5796 5796 5796 5796 5796 5796 5796 5796 5796 5795 5795 5795 5794 5793 5792 5791 5791 5790 5790 5791 5791 5791 5791 5790 5789 5788 5788 5787 5787 5787 5786 5785 5784 5783 5783 5782 5782 5782 5781 5781 5781 5781 5780 5780 5780 5779 5779 5779 5779 5780 5779 5779 5779 5779 5779 5779 5779 5779 5778 5778 5777 5777
5775 5775 5775 5776 5777 5778 5779 5779 5780 5780 5781 5782 5782 5783 5784 5785 5785 5786 5787 5787 5788 5788 5788 5788 5789 5789 5789 5789 5790 5790 5790 5791 5791 5792 5791 5792 5792 5792 5792 5792 5793 5793 5793 5793 5793 5792 5792 5792 5792 5792 5792 5792 5792 5791 5790 5789 5788 5787 5787 5787 5787 5787 5787 5787 5787 5786 5785 5784 5784 5783 5783 5782 5782 5781 5781 5780 5780 5779 5779 5778 5778 5778 5778 5777 5777 5777 5777 5777 5777 5777 5777 5777 5777 5777 5777 5777 5777 5777 5777 5777 5776 5775 5775
5772 5772 5772 5772 5773 5775 5776 5776 5777 5777 5778 5779 5780 5781 5782 5782 5782 5782 5783 5784 5784 5785 5785 5785 5786 5786 5787 5787 5787 5787 5787 5787 5788 5788 5788 5789 5789 5789 5789 5789 5789 5790 5790 5790 5789 5789 5789 5789 5789 5789 5789 5789 5789 5788 5787 5786 5785 5785 5785 5785 5784 5784 5784 5783 5783 5782 5782 5781 5780 5780 5779 5779 5778 5778 5777 5777 5777 5777 5776 5776 5775 5775 5775 5775 5774 5774 5774 5774 5774 5774 5774 5774 5774 5774 5774 5774 5774 5774 5775 5774 5773 5772 5772
5770 5770 5770 5769 5769 5770 5772 5772 5773 5774 5775 5776 5777 5778 5778 5779 5779 5779 5780 5780 5781 5781 5781 5782 5782 5783 5783 5784 5784 5784 5784 5784 5784 5785 5785 5785 5786 5786 5786 5786 5786 5786 5787 5787 5786 5786 5785 5785 5785 5786 5786 5786 5785 5785 5784 5783 5782 5782 5782 5782 5781 5781 5780 5780 5780 5779 5778 5778 5777 5777 5776 5776 5775 5775 5774 5774 5774 5774 5773 5773 5772 5772 5772 5772 5771 5771 5771 5771 5771 5771 5771 5771 5771 5771 5772 5772 5772 5772 5772 5772 5771 5770 5770
5772 5771 5768 5767 5766 5766 5767 5768 5770 5771 5772 5772 5774 5774 5775 5775 5775 5776 5776 5777 5777 5777 5778 5779 5779 5780 5780 5780 5781 5781 5781 5781 5782 5782 5782 5782 5782 5782 5782 5782 5782 5783 5783 5783 5783 5782 5782 5782 5782 5782 5782 5782 5782 5781 5781 5780 5780 5779 5779 5779 5778 5777 5777 5777 5776 5776 5775 5775 5774 5774 5773 5772 5772 5771 5771 5771 5770 5770 5770 5770 5770 5769 5769 5768 5768 5768 5767 5768 5768 5768 5768 5768 5768 5768 5769 5769 5769 5768 5768 5768 5769 5768 5767
5773 5772 5769 5766 5764 5763 5763 5764 5765 5767 5768 5769 5771 5771 5771 5771 5772 5772 5772 5773 5774 5774 5775 5775 5776 5776 5777 5777 5777 5778 5779 5778 5779 5779 5778 5778 5779 5779 5778 5778 5779 5780 5780 5780 5780 5779 5778 5778 5778 5778 5779 5778 5778 5778 5777 5777 5776 5776 5776 5775 5775 5774 5773 5773 5772 5772 5772 5771 5771 5770 5770 5769 5768 5768 5767 5767 5767 5767 5767 5767 5767 5766 5766 5766 5765 5765 5765 5765 5765 5765 5766 5766 5766 5766 5765 5766 5766 5766 5765 5765 5766 5766 5765
5767 5767 5767 5765 5763 5762 5762 5762 5762 5763 5765 5766 5767 5767 5767 5768 5768 5768 5769 5770 5770 5771 5771 5771 5772 5773 5774 5774 5775 5775 5776 5775 5776 5776 5775 5775 5776 5776 5775 5775 5776 5776 5777 5777 5776 5775 5775 5774 5774 5775 5775 5774 5774 5774 5774 5773 5773 5772 5772 5772 5771 5771 5770 5769 5769 5768 5768 5768 5767 5767 5766 5766 5765 5764 5764 5763 5763 5763 5763 5763 5763 5763 5763 5762 5762 5762 5762 5762 5762 5763 5763 5763 5762 5762 5762 5762 5762 5762 5762 5762 5763 5763 5762
5761 5761 5761 5760 5760 5760 5761 5761 5761 5762 5762 5763 5763 5763 5764 5764 5765 5765 5766 5767 5767 5767 5767 5767 5768 5769 5771 5772 5772 5772 5772 5772 5772 5772 5773 5772 5772 5772 5772 5772 5772 5772 5773 5773 5772 5772 5772 5771 5770 5771 5772 5771 5771 5770 5770 5770 5769 5769 5768 5768 5767 5767 5766 5766 5765 5765 5765 5764 5764 5763 5763 5762 5762 5761 5760 5760 5760 5759 5759 5760 5760 5760 5760 5759 5759 5759 5759 5759 5760 5760 5760 5760 5759 5759 5759 5759 5759 5759 5759 5759 5760 5760 5759
5757 5757 5757 5757 5757 5758 5758 5759 5760 5761 5761 5761 5761 5761 5761 5761 5762 5762 5763 5763 5763 5763 5764 5764 5765 5767 5767 5768 5769 5769 5769 5769 5769 5769 5770 5770 5769 5769 5768 5769 5769 5768 5769 5769 5768 5767 5769 5769 5767 5767 5768 5768 5767 5767 5767 5766 5766 5765 5765 5764 5764 5763 5763 5762 5762 5762 5761 5761 5760 5760 5759 5759 5758 5757 5757 5756 5756 5756 5756 5756 5756 5756 5756 5756 5756 5756 5756 5756 5757 5757 5757 5757 5756 5756 5756 5756 5757 5757 5757 5757 5757 5757 5757
5755 5755 5756 5755 5754 5755 5755 5756 5757 5757 5757 5758 5758 5758 5758 5759 5759 5760 5760 5760 5761 5761 5761 5762 5762 5763 5764 5764 5765 5766 5766 5767 5767 5767 5766 5766 5766 5765 5764 5764 5765 5765 5764 5765 5764 5764 5765 5766 5766 5764 5764 5765 5764 5762 5762 5762 5762 5762 5762 5761 5760 5760 5759 5759 5758 5758 5757 5757 5757 5756 5756 5755 5755 5754 5754 5753 5752 5752 5752 5752 5752 5752 5752 5752 5753 5753 5753 5753 5753 5753 5753 5753 5753 5753 5753 5753 5753 5753 5753 5753 5752 5753 5755
5753 5753 5753 5754 5753 5752 5753 5753 5754 5754 5755 5755 5755 5756 5756 5756 5757 5757 5757 5757 5758 5758 5758 5759 5759 5760 5761 5761 5761 5762 5763 5763 5763 5763 5763 5762 5762 5762 5760 5759 5759 5759 5760 5760 5761 5761 5761 5761 5761 5760 5760 5762 5761 5758 5758 5759 5759 5759 5758 5758 5757 5757 5756 5755 5755 5754 5754 5753 5753 5753 5752 5752 5752 5751 5750 5750 5749 5749 5749 5749 5749 5749 5749 5749 5749 5750 5750 5750 5750 5750 5750 5750 5750 5750 5750 5750 5750 5750 5750 5750 5750 5750 5751
5752 5751 5750 5751 5752 5752 5751 5752 5752 5752 5752 5752 5752 5752 5753 5753 5753 5754 5754 5754 5754 5755 5755 5755 5756 5757 5757 5758 5758 5758 5759 5759 5759 5760 5759 5758 5758 5757 5757 5756 5755 5755 5756 5755 5756 5757 5756 5757 5756 5755 5756 5759 5758 5756 5755 5756 5756 5756 5755 5755 5754 5753 5752 5752 5751 5751 5750 5750 5749 5749 5748 5748 5748 5747 5747 5746 5746 5745 5745 5745 5745 5745 5745 5746 5746 5747 5747 5747 5747 5747 5747 5747 5747 5747 5747 5747 5747 5747 5747 5747 5747 5747 5747
5747 5747 5747 5748 5748 5749 5749 5749 5749 5749 5749 5749 5749 5750 5750 5750 5751 5751 5751 5751 5751 5752 5752 5752 5753 5754 5754 5755 5755 5755 5756 5756 5756 5756 5756 5755 5754 5754 5753 5753 5752 5752 5752 5751 5751 5751 5751 5752 5751 5750 5751 5752 5754 5754 5753 5752 5752 5752 5752 5751 5750 5750 5749 5748 5747 5747 5747 5746 5746 5745 5745 5745 5744 5744 5743 5743 5742 5742 5742 5742 5742 5742 5742 5742 5742 5743 5743 5743 5744 5743 5743 5744 5744 5744 5744 5744 5744 5743 5744 5744 5744 5744 5744
5743 5743 5744 5744 5745 5746 5747 5747 5746 5746 5746 5747 5747 5747 5747 5748 5748 5748 5748 5748 5748 5749 5749 5749 5750 5751 5751 5752 5752 5753 5752 5753 5753 5752 5752 5752 5751 5750 5750 5749 5748 5748 5747 5747 5747 5747 5747 5747 5746 5747 5747 5747 5748 5751 5751 5749 5749 5748 5748 5748 5747 5746 5745 5745 5744 5744 5743 5743 5742 5742 5741 5741 5740 5740 5739 5739 5739 5739 5739 5739 5739 5739 5739 5739 5739 5739 5740 5740 5740 5740 5740 5740 5740 5741 5741 5741 5741 5740 5741 5741 5741 5741 5741
5740 5740 5740 5741 5742 5743 5744 5744 5744 5744 5744 5744 5746 5746 5745 5745 5746 5746 5746 5746 5746 5746 5747 5747 5747 5748 5748 5749 5749 5750 5749 5749 5749 5749 5748 5747 5747 5747 5747 5745 5744 5744 5744 5743 5743 5743 5743 5742 5742 5742 5742 5742 5743 5745 5747 5747 5747 5746 5745 5744 5744 5743 5742 5742 5741 5741 5740 5739 5739 5738 5737 5737 5736 5736 5736 5736 5736 5736 5736 5736 5736 5736 5736 5736 5736 5736 5736 5736 5737 5737 5737 5737 5737 5737 5737 5739 5739 5738 5738 5738 5738 5739 5738
5737 5737 5738 5738 5739 5741 5742 5742 5742 5742 5742 5743 5744 5745 5744 5743 5743 5743 5743 5743 5743 5743 5744 5745 5745 5746 5746 5746 5746 5746 5746 5746 5746 5745 5745 5744 5743 5743 5743 5742 5741 5740 5740 5740 5740 5740 5739 5739 5739 5738 5738 5738 5738 5739 5740 5743 5744 5743 5742 5742 5741 5740 5739 5739 5738 5737 5736 5736 5735 5734 5733 5732 5732 5732 5732 5732 5733 5733 5733 5733 5733 5733 5733 5732 5732 5732 5732 5733 5733 5733 5733 5733 5733 5734 5734 5736 5736 5736 5735 5735 5735 5735 5735